This is the latest recevied weather packets stored in our database for station/object DO7DH-5. If no packets are shown the sender has not sent any weather packets the latest 1 day(s).
| Time | Temp. | Humidity | Pressure | Rain* | Wind** | Luminosity | Snow |
|---|---|---|---|---|---|---|---|
| 1778082427 | 16.11° C | 59% | 1005.7 hPa | - | - | - | - |
| 1778082395 | 16.67° C | 58% | 1005.7 hPa | - | - | - | - |
| 1778082332 | 16.67° C | 57% | 1005.5 hPa | - | - | - | - |
| 1778082270 | 17.22° C | 57% | 1005.2 hPa | - | - | - | - |
| 1778082175 | 17.78° C | 58% | 1005.1 hPa | - | - | - | - |
| 1778082142 | 17.78° C | 56% | 1005 hPa | - | - | - | - |
| 1778082079 | 17.22° C | 55% | 1004.5 hPa | - | - | - | - |
| 1778082016 | 17.22° C | 54% | 1003.7 hPa | - | - | - | - |
| 1778081922 | 17.78° C | 54% | 1003 hPa | - | - | - | - |
| 1778081795 | 17.78° C | 53% | 1003 hPa | - | - | - | - |
| 1778081732 | 17.78° C | 49% | 1003.1 hPa | - | - | - | - |
| 1778081637 | 17.78° C | 47% | 1003.1 hPa | - | - | - | - |
| 1778081511 | 18.33° C | 46% | 1002.9 hPa | - | - | - | - |
| 1778081448 | 18.33° C | 45% | 1002.9 hPa | - | - | - | - |
| 1778081385 | 18.33° C | 45% | 1002.8 hPa | - | - | - | - |
| 1778081322 | 18.33° C | 44% | 1002.8 hPa | - | - | - | - |
| 1778081259 | 18.33° C | 44% | 1002.9 hPa | - | - | - | - |
| 1778081196 | 18.33° C | 44% | 1003.1 hPa | - | - | - | - |
| 1778081070 | 18.89° C | 43% | 1003.2 hPa | - | - | - | - |
| 1778081007 | 19.44° C | 42% | 1003.3 hPa | - | - | - | - |
| 1778080911 | 20° C | 42% | 1003.4 hPa | - | - | - | - |
| 1778080848 | 20.56° C | 42% | 1003.4 hPa | - | - | - | - |
| 1778080785 | 20.56° C | 40% | 1003.5 hPa | - | - | - | - |
| 1778080722 | 20.56° C | 39% | 1003.5 hPa | - | - | - | - |
| 1778080659 | 21.11° C | 38% | 1003.6 hPa | - | - | - | - |
* Rain since midnight (hover to see other rain measurements)
** Current wind speed in m/s (hover to see current wind gust speed)